Time,TemperatureF,DewpointF,PressureIn,WindDirection,WindDirectionDegrees,WindSpeedMPH,WindSpeedGustMPH,Humidity,HourlyPrecipIn,Conditions,Clouds,dailyrainin,SoftwareType,DateUTC
2013-01-02 00:03:00,16.0,1.0,-100.00,NNW,340,4.0,10.0,52,0.00,,,-99.99,,2013-01-02 05:03:00,
2013-01-02 00:12:00,16.0,1.0,-100.00,NNW,330,5.0,8.0,51,0.00,,,-99.99,,2013-01-02 05:12:00,
2013-01-02 00:22:00,15.0,2.0,-100.00,NNW,345,1.0,7.0,54,0.00,,,-99.99,,2013-01-02 05:22:00,
2013-01-02 00:33:00,15.0,1.0,-100.00,NNW,345,4.0,7.0,53,0.00,,,-99.99,,2013-01-02 05:33:00,
2013-01-02 00:42:00,15.0,1.0,-100.00,NW,310,3.0,7.0,54,0.00,,,-99.99,,2013-01-02 05:42:00,
2013-01-02 00:52:00,15.0,1.0,-100.00,NW,320,2.0,9.0,54,0.00,,,-99.99,,2013-01-02 05:52:00,
2013-01-02 01:02:00,14.0,1.0,-100.00,NW,315,3.0,8.0,55,0.00,,,-99.99,,2013-01-02 06:02:00,
2013-01-02 01:12:00,14.0,1.0,-100.00,NNW,330,3.0,7.0,54,0.00,,,-99.99,,2013-01-02 06:12:00,
2013-01-02 01:22:00,14.0,1.0,-100.00,NNW,335,3.0,9.0,55,0.00,,,-99.99,,2013-01-02 06:22:00,
2013-01-02 01:32:00,14.0,1.0,-100.00,NW,325,2.0,8.0,56,0.00,,,-99.99,,2013-01-02 06:32:00,
2013-01-02 01:42:00,14.0,1.0,-100.00,NNW,335,4.0,7.0,55,0.00,,,-99.99,,2013-01-02 06:42:00,
2013-01-02 01:52:00,14.0,1.0,-100.00,NNW,335,2.0,6.0,55,0.00,,,-99.99,,2013-01-02 06:52:00,
2013-01-02 02:02:00,14.0,1.0,-100.00,NW,320,1.0,6.0,56,0.00,,,-99.99,,2013-01-02 07:02:00,
2013-01-02 02:12:00,14.0,1.0,-100.00,NNE,30,1.0,6.0,56,0.00,,,-99.99,,2013-01-02 07:12:00,
2013-01-02 02:22:00,14.0,2.0,-100.00,WSW,250,2.0,8.0,57,0.00,,,-99.99,,2013-01-02 07:22:00,
2013-01-02 02:32:00,14.0,1.0,-100.00,WNW,295,4.0,7.0,57,0.00,,,-99.99,,2013-01-02 07:32:00,
2013-01-02 02:42:00,14.0,1.0,-100.00,WNW,285,2.0,7.0,57,0.00,,,-99.99,,2013-01-02 07:42:00,
2013-01-02 02:52:00,14.0,2.0,-100.00,WNW,290,2.0,8.0,57,0.00,,,-99.99,,2013-01-02 07:52:00,
2013-01-02 03:02:00,14.0,2.0,-100.00,West,280,4.0,10.0,57,0.00,,,-99.99,,2013-01-02 08:02:00,
2013-01-02 03:12:00,13.0,2.0,-100.00,NNE,25,1.0,7.0,58,0.00,,,-99.99,,2013-01-02 08:12:00,
2013-01-02 03:22:00,13.0,2.0,-100.00,West,280,2.0,9.0,58,0.00,,,-99.99,,2013-01-02 08:22:00,
2013-01-02 03:32:00,13.0,2.0,-100.00,West,280,1.0,5.0,59,0.00,,,-99.99,,2013-01-02 08:32:00,
2013-01-02 03:42:00,13.0,2.0,-100.00,West,275,1.0,5.0,58,0.00,,,-99.99,,2013-01-02 08:42:00,
2013-01-02 03:52:00,13.0,2.0,-100.00,WSW,255,3.0,9.0,58,0.00,,,-99.99,,2013-01-02 08:52:00,
2013-01-02 04:02:00,13.0,2.0,-100.00,West,265,2.0,7.0,59,0.00,,,-99.99,,2013-01-02 09:02:00,
2013-01-02 04:12:00,13.0,1.0,-100.00,WSW,255,1.0,6.0,58,0.00,,,-99.99,,2013-01-02 09:12:00,
2013-01-02 04:22:00,13.0,1.0,-100.00,West,260,1.0,4.0,58,0.00,,,-99.99,,2013-01-02 09:22:00,
2013-01-02 04:32:00,13.0,1.0,-100.00,NW,320,1.0,4.0,59,0.00,,,-99.99,,2013-01-02 09:32:00,
2013-01-02 04:43:00,13.0,1.0,-100.00,West,265,1.0,4.0,60,0.00,,,-99.99,,2013-01-02 09:43:00,
2013-01-02 04:52:00,13.0,1.0,-100.00,WSW,255,1.0,7.0,58,0.00,,,-99.99,,2013-01-02 09:52:00,
2013-01-02 05:02:00,13.0,1.0,-100.00,SW,235,1.0,5.0,58,0.00,,,-99.99,,2013-01-02 10:02:00,
2013-01-02 05:12:00,12.0,1.0,-100.00,SW,235,0.0,4.0,59,0.00,,,-99.99,,2013-01-02 10:12:00,
2013-01-02 05:22:00,11.0,2.0,-100.00,South,180,0.0,1.0,65,0.00,,,-99.99,,2013-01-02 10:22:00,
2013-01-02 05:32:00,11.0,2.0,-100.00,West,265,0.0,3.0,65,0.00,,,-99.99,,2013-01-02 10:32:00,
2013-01-02 05:42:00,9.0,1.0,-100.00,South,185,0.0,1.0,69,0.00,,,-99.99,,2013-01-02 10:42:00,
2013-01-02 05:52:00,8.0,0.0,-100.00,West,265,1.0,1.0,71,0.00,,,-99.99,,2013-01-02 10:52:00,
2013-01-02 06:02:00,8.0,1.0,-100.00,NNW,345,1.0,4.0,72,0.00,,,-99.99,,2013-01-02 11:02:00,
2013-01-02 06:12:00,8.0,1.0,-100.00,WSW,250,1.0,1.0,72,0.00,,,-99.99,,2013-01-02 11:12:00,
2013-01-02 06:22:00,7.0,0.0,-100.00,SSE,165,0.0,1.0,74,0.00,,,-99.99,,2013-01-02 11:22:00,
2013-01-02 06:33:00,7.0,0.0,-100.00,WSW,250,0.0,4.0,74,0.00,,,-99.99,,2013-01-02 11:33:00,
2013-01-02 06:42:00,6.0,0.0,-100.00,NW,320,2.0,4.0,75,0.00,,,-99.99,,2013-01-02 11:42:00,
2013-01-02 06:52:00,6.0,0.0,-100.00,South,175,0.0,5.0,76,0.00,,,-99.99,,2013-01-02 11:52:00,
2013-01-02 07:03:00,7.0,1.0,-100.00,SW,215,0.0,4.0,76,0.00,,,-99.99,,2013-01-02 12:03:00,
2013-01-02 07:12:00,6.0,0.0,-100.00,WSW,255,1.0,4.0,76,0.00,,,-99.99,,2013-01-02 12:12:00,
2013-01-02 07:22:00,6.0,0.0,-100.00,SW,220,1.0,1.0,77,0.00,,,-99.99,,2013-01-02 12:22:00,
2013-01-02 07:33:00,6.0,1.0,-100.00,SW,230,0.0,1.0,77,0.00,,,-99.99,,2013-01-02 12:33:00,
2013-01-02 07:42:00,6.0,1.0,-100.00,South,185,0.0,1.0,78,0.00,,,-99.99,,2013-01-02 12:42:00,
2013-01-02 07:53:00,6.0,1.0,-100.00,SSW,210,0.0,1.0,78,0.00,,,-99.99,,2013-01-02 12:53:00,
2013-01-02 08:02:00,7.0,2.0,-100.00,ESE,115,0.0,1.0,78,0.00,,,-99.99,,2013-01-02 13:02:00,
2013-01-02 08:12:00,8.0,3.0,-100.00,South,185,0.0,1.0,77,0.00,,,-99.99,,2013-01-02 13:12:00,
2013-01-02 08:22:00,8.0,2.0,-100.00,SW,230,1.0,1.0,76,0.00,,,-99.99,,2013-01-02 13:22:00,
2013-01-02 08:33:00,8.0,2.0,-100.00,SW,230,1.0,1.0,76,0.00,,,-99.99,,2013-01-02 13:33:00,
2013-01-02 08:43:00,11.0,4.0,-100.00,SW,215,0.0,3.0,74,0.00,,,-99.99,,2013-01-02 13:43:00,
2013-01-02 08:52:00,13.0,5.0,-100.00,SSE,165,1.0,3.0,71,0.00,,,-99.99,,2013-01-02 13:52:00,
2013-01-02 09:02:00,14.0,6.0,-100.00,SW,235,1.0,2.0,69,0.00,,,-99.99,,2013-01-02 14:02:00,
2013-01-02 09:12:00,15.0,6.0,-100.00,WSW,240,3.0,7.0,65,0.00,,,-99.99,,2013-01-02 14:12:00,
2013-01-02 09:22:00,17.0,6.0,-100.00,WSW,240,3.0,7.0,60,0.00,,,-99.99,,2013-01-02 14:22:00,
2013-01-02 09:33:00,18.0,6.0,-100.00,West,265,4.0,12.0,58,0.00,,,-99.99,,2013-01-02 14:33:00,
2013-01-02 09:43:00,19.0,6.0,-100.00,WSW,250,4.0,10.0,57,0.00,,,-99.99,,2013-01-02 14:43:00,
2013-01-02 09:53:00,19.0,7.0,-100.00,SSW,210,4.0,11.0,56,0.00,,,-99.99,,2013-01-02 14:53:00,
2013-01-02 10:03:00,20.0,7.0,-100.00,West,275,4.0,11.0,55,0.00,,,-99.99,,2013-01-02 15:03:00,
2013-01-02 10:12:00,21.0,7.0,-100.00,WSW,245,5.0,8.0,55,0.00,,,-99.99,,2013-01-02 15:12:00,
2013-01-02 10:22:00,21.0,8.0,-100.00,West,270,3.0,8.0,55,0.00,,,-99.99,,2013-01-02 15:22:00,
2013-01-02 10:33:00,21.0,8.0,-100.00,West,270,3.0,8.0,55,0.00,,,-99.99,,2013-01-02 15:33:00,
2013-01-02 10:43:00,22.0,9.0,-100.00,WNW,285,5.0,11.0,55,0.00,,,-99.99,,2013-01-02 15:43:00,
2013-01-02 10:53:00,24.0,9.0,-100.00,WNW,300,4.0,11.0,52,0.00,,,-99.99,,2013-01-02 15:53:00,
2013-01-02 11:03:00,25.0,9.0,-100.00,West,280,4.0,14.0,50,0.00,,,-99.99,,2013-01-02 16:03:00,
2013-01-02 11:13:00,25.0,9.0,-100.00,WNW,285,8.0,17.0,51,0.00,,,-99.99,,2013-01-02 16:13:00,
2013-01-02 11:22:00,25.0,9.0,-100.00,WSW,245,5.0,11.0,51,0.00,,,-99.99,,2013-01-02 16:22:00,
2013-01-02 11:33:00,25.0,10.0,-100.00,West,275,7.0,13.0,50,0.00,,,-99.99,,2013-01-02 16:33:00,
2013-01-02 11:43:00,25.0,10.0,-100.00,West,260,6.0,15.0,51,0.00,,,-99.99,,2013-01-02 16:43:00,
2013-01-02 11:53:00,26.0,10.0,-100.00,West,275,4.0,14.0,50,0.00,,,-99.99,,2013-01-02 16:53:00,
2013-01-02 12:03:00,26.0,10.0,-100.00,WNW,285,6.0,9.0,49,0.00,,,-99.99,,2013-01-02 17:03:00,
2013-01-02 12:13:00,26.0,10.0,-100.00,West,270,7.0,11.0,51,0.00,,,-99.99,,2013-01-02 17:13:00,
2013-01-02 12:23:00,26.0,10.0,-100.00,West,260,6.0,14.0,51,0.00,,,-99.99,,2013-01-02 17:23:00,
2013-01-02 12:33:00,26.0,10.0,-100.00,NW,320,7.0,11.0,51,0.00,,,-99.99,,2013-01-02 17:33:00,
2013-01-02 12:43:00,26.0,11.0,-100.00,WNW,290,7.0,17.0,52,0.00,,,-99.99,,2013-01-02 17:43:00,
2013-01-02 12:53:00,25.0,11.0,-100.00,West,280,5.0,15.0,53,0.00,,,-99.99,,2013-01-02 17:53:00,
2013-01-02 13:03:00,26.0,11.0,-100.00,WNW,285,7.0,14.0,53,0.00,,,-99.99,,2013-01-02 18:03:00,
2013-01-02 13:13:00,26.0,12.0,-100.00,West,270,6.0,16.0,56,0.00,,,-99.99,,2013-01-02 18:13:00,
2013-01-02 13:22:00,26.0,12.0,-100.00,NNW,335,7.0,13.0,56,0.00,,,-99.99,,2013-01-02 18:22:00,
2013-01-02 13:33:00,25.0,12.0,-100.00,West,280,6.0,13.0,57,0.00,,,-99.99,,2013-01-02 18:33:00,
2013-01-02 13:43:00,25.0,13.0,-100.00,NW,315,6.0,12.0,58,0.00,,,-99.99,,2013-01-02 18:43:00,
2013-01-02 13:53:00,26.0,13.0,-100.00,WSW,245,3.0,12.0,59,0.00,,,-99.99,,2013-01-02 18:53:00,
2013-01-02 14:03:00,26.0,14.0,-100.00,WSW,255,6.0,11.0,59,0.00,,,-99.99,,2013-01-02 19:03:00,
2013-01-02 14:12:00,27.0,14.0,-100.00,NW,310,4.0,10.0,57,0.00,,,-99.99,,2013-01-02 19:12:00,
2013-01-02 14:23:00,27.0,15.0,-100.00,WSW,255,3.0,13.0,58,0.00,,,-99.99,,2013-01-02 19:23:00,
2013-01-02 14:33:00,26.0,15.0,-100.00,WSW,240,4.0,11.0,60,0.00,,,-99.99,,2013-01-02 19:33:00,
2013-01-02 14:43:00,26.0,13.0,-100.00,WNW,290,4.0,15.0,57,0.00,,,-99.99,,2013-01-02 19:43:00,
2013-01-02 14:52:00,26.0,12.0,-100.00,WSW,250,4.0,13.0,56,0.00,,,-99.99,,2013-01-02 19:52:00,
2013-01-02 15:03:00,25.0,12.0,-100.00,North,350,6.0,11.0,56,0.00,,,-99.99,,2013-01-02 20:03:00,
2013-01-02 15:12:00,25.0,12.0,-100.00,NNW,335,4.0,14.0,56,0.00,,,-99.99,,2013-01-02 20:12:00,
2013-01-02 15:23:00,25.0,9.0,-100.00,NNW,335,7.0,12.0,50,0.00,,,-99.99,,2013-01-02 20:23:00,
2013-01-02 15:33:00,26.0,10.0,-100.00,NNW,330,6.0,16.0,51,0.00,,,-99.99,,2013-01-02 20:33:00,
2013-01-02 15:42:00,26.0,11.0,-100.00,NNW,345,5.0,10.0,52,0.00,,,-99.99,,2013-01-02 20:42:00,
2013-01-02 15:53:00,25.0,10.0,-100.00,North,350,6.0,12.0,53,0.00,,,-99.99,,2013-01-02 20:53:00,
2013-01-02 16:03:00,24.0,11.0,-100.00,NNW,345,4.0,11.0,55,0.00,,,-99.99,,2013-01-02 21:03:00,
2013-01-02 16:13:00,24.0,11.0,-100.00,NNW,335,4.0,10.0,57,0.00,,,-99.99,,2013-01-02 21:13:00,
2013-01-02 16:22:00,23.0,11.0,-100.00,NNW,345,4.0,11.0,58,0.00,,,-99.99,,2013-01-02 21:22:00,
2013-01-02 16:33:00,23.0,11.0,-100.00,NNW,345,6.0,9.0,58,0.00,,,-99.99,,2013-01-02 21:33:00,
2013-01-02 16:43:00,23.0,11.0,-100.00,NNW,345,4.0,11.0,59,0.00,,,-99.99,,2013-01-02 21:43:00,
2013-01-02 16:52:00,22.0,11.0,-100.00,NNW,335,2.0,7.0,60,0.00,,,-99.99,,2013-01-02 21:52:00,
2013-01-02 17:03:00,22.0,9.0,-100.00,NNW,345,4.0,7.0,57,0.00,,,-99.99,,2013-01-02 22:03:00,
2013-01-02 17:12:00,22.0,9.0,-100.00,North,355,4.0,9.0,56,0.00,,,-99.99,,2013-01-02 22:12:00,
2013-01-02 17:22:00,21.0,7.0,-100.00,NNW,340,6.0,10.0,53,0.00,,,-99.99,,2013-01-02 22:22:00,
2013-01-02 17:32:00,21.0,7.0,-100.00,NNW,335,3.0,8.0,53,0.00,,,-99.99,,2013-01-02 22:32:00,
2013-01-02 17:42:00,21.0,7.0,-100.00,North,350,4.0,9.0,53,0.00,,,-99.99,,2013-01-02 22:42:00,
2013-01-02 17:52:00,20.0,6.0,-100.00,NW,320,4.0,9.0,53,0.00,,,-99.99,,2013-01-02 22:52:00,
2013-01-02 18:03:00,20.0,6.0,-100.00,NNW,330,4.0,7.0,52,0.00,,,-99.99,,2013-01-02 23:03:00,
2013-01-02 18:13:00,20.0,6.0,-100.00,North,350,2.0,6.0,52,0.00,,,-99.99,,2013-01-02 23:13:00,
2013-01-02 18:23:00,20.0,7.0,-100.00,North,10,2.0,5.0,56,0.00,,,-99.99,,2013-01-02 23:23:00,
2013-01-02 18:33:00,20.0,7.0,-100.00,North,10,2.0,9.0,56,0.00,,,-99.99,,2013-01-02 23:33:00,
2013-01-02 18:42:00,18.0,6.0,-100.00,NNW,340,2.0,7.0,58,0.00,,,-99.99,,2013-01-02 23:42:00,
2013-01-02 18:52:00,19.0,5.0,-100.00,NNW,330,4.0,9.0,54,0.00,,,-99.99,,2013-01-02 23:52:00,
2013-01-02 19:02:00,19.0,4.0,-100.00,NNW,345,4.0,9.0,52,0.00,,,-99.99,,2013-01-03 00:02:00,
2013-01-02 19:12:00,18.0,4.0,-100.00,NNE,15,4.0,7.0,52,0.00,,,-99.99,,2013-01-03 00:12:00,
2013-01-02 19:22:00,17.0,2.0,-100.00,NNW,335,5.0,12.0,51,0.00,,,-99.99,,2013-01-03 00:22:00,
2013-01-02 19:38:00,17.0,2.0,-100.00,North,0,5.0,11.0,50,0.00,,,-99.99,,2013-01-03 00:38:00,
2013-01-02 19:52:00,15.0,0.0,-100.00,NNW,345,5.0,13.0,51,0.00,,,-99.99,,2013-01-03 00:52:00,
2013-01-02 20:02:00,15.0,1.0,-100.00,NNW,335,3.0,12.0,52,0.00,,,-99.99,,2013-01-03 01:02:00,
2013-01-02 20:12:00,15.0,1.0,-100.00,NNE,20,6.0,11.0,52,0.00,,,-99.99,,2013-01-03 01:12:00,
2013-01-02 20:22:00,14.0,1.0,-100.00,North,0,3.0,6.0,55,0.00,,,-99.99,,2013-01-03 01:22:00,
2013-01-02 20:32:00,14.0,0.0,-100.00,NNW,330,5.0,11.0,54,0.00,,,-99.99,,2013-01-03 01:32:00,
2013-01-02 20:42:00,13.0,-1.0,-100.00,North,355,7.0,13.0,52,0.00,,,-99.99,,2013-01-03 01:42:00,
2013-01-02 20:52:00,13.0,-2.0,-100.00,NW,325,9.0,17.0,50,0.00,,,-99.99,,2013-01-03 01:52:00,
2013-01-02 21:02:00,12.0,-3.0,-100.00,NNW,330,2.0,15.0,50,0.00,,,-99.99,,2013-01-03 02:02:00,
2013-01-02 21:12:00,12.0,-3.0,-100.00,NNW,330,6.0,11.0,50,0.00,,,-99.99,,2013-01-03 02:12:00,
2013-01-02 21:22:00,11.0,-4.0,-100.00,NW,325,4.0,10.0,50,0.00,,,-99.99,,2013-01-03 02:22:00,
2013-01-02 21:33:00,11.0,-4.0,-100.00,NW,325,6.0,10.0,50,0.00,,,-99.99,,2013-01-03 02:33:00,
2013-01-02 21:42:00,11.0,-4.0,-100.00,NW,325,6.0,10.0,50,0.00,,,-99.99,,2013-01-03 02:42:00,
2013-01-02 21:52:00,11.0,-4.0,-100.00,NW,325,6.0,10.0,50,0.00,,,-99.99,,2013-01-03 02:52:00,
2013-01-02 22:02:00,9.0,-5.0,-100.00,NNW,335,7.0,16.0,51,0.00,,,-99.99,,2013-01-03 03:02:00,
2013-01-02 22:12:00,9.0,-5.0,-100.00,NNW,335,4.0,16.0,51,0.00,,,-99.99,,2013-01-03 03:12:00,
2013-01-02 22:22:00,8.0,-6.0,-100.00,NW,305,6.0,18.0,50,0.00,,,-99.99,,2013-01-03 03:22:00,
2013-01-02 22:46:00,8.0,-8.0,-100.00,NW,310,8.0,16.0,48,0.00,,,-99.99,,2013-01-03 03:46:00,
2013-01-02 22:52:00,7.0,-8.0,-100.00,NNW,340,7.0,12.0,48,0.00,,,-99.99,,2013-01-03 03:52:00,
2013-01-02 23:02:00,7.0,-8.0,-100.00,WNW,295,5.0,12.0,49,0.00,,,-99.99,,2013-01-03 04:02:00,
2013-01-02 23:12:00,7.0,-9.0,-100.00,NW,310,6.0,10.0,49,0.00,,,-99.99,,2013-01-03 04:12:00,
2013-01-02 23:22:00,6.0,-9.0,-100.00,NNW,345,4.0,10.0,50,0.00,,,-99.99,,2013-01-03 04:22:00,
2013-01-02 23:32:00,6.0,-8.0,-100.00,West,275,4.0,9.0,51,0.00,,,-99.99,,2013-01-03 04:32:00,
2013-01-02 23:42:00,6.0,-9.0,-100.00,West,270,5.0,12.0,50,0.00,,,-99.99,,2013-01-03 04:42:00,
2013-01-02 23:52:00,6.0,-9.0,-100.00,South,185,2.0,9.0,50,0.00,,,-99.99,,2013-01-03 04:52:00,